Theta_e
297 297 300 300 298 297 296 296 296 297 298 299 298 302 306 305 298 297 304 306 306 308 312 315 317 317 317 318 319 320 321 321 320 320 321 321 321 323 325 323 325 326 327 329 331 334 337 339 339 339 340 340 343 347 347 347 348 348 351 350 350 350 349 347 347 349 350 349 349 348 349 347 347 347 348 346 345 345 346 345 346 344 343 343 345 347 348
297 297 298 297 295 295 296 296 297 298 299 303 301 305 309 309 304 307 307 307 308 311 313 315 316 319 319 320 321 320 319 318 319 319 319 320 320 321 321 322 324 324 325 326 327 329 331 336 338 338 339 341 342 344 343 346 348 351 351 351 350 349 349 347 348 349 349 350 350 349 349 347 347 347 348 348 347 345 343 343 344 345 344 342 342 345 347
293 298 299 297 296 295 294 296 297 298 300 309 311 311 311 311 308 309 308 307 306 311 316 317 318 319 319 319 318 317 318 318 318 317 318 318 319 320 321 321 322 323 324 325 326 327 328 331 334 337 338 339 341 342 343 344 343 345 347 348 350 350 349 349 350 350 350 350 350 349 349 349 349 348 347 348 347 346 344 343 343 344 347 343 340 341 344
291 296 297 297 297 298 295 295 296 297 296 296 303 308 310 307 305 307 307 304 304 310 317 315 316 317 316 315 315 315 316 316 316 315 315 315 316 317 319 320 320 322 323 324 325 325 327 329 331 334 335 338 339 340 341 342 342 344 343 343 341 341 346 350 351 350 351 351 350 349 350 349 349 349 349 348 347 346 345 343 343 344 345 344 342 340 341
289 294 296 296 295 294 291 292 295 299 300 301 304 310 314 311 310 306 302 302 309 312 315 311 312 314 313 313 314 313 314 314 314 313 313 314 315 316 317 318 320 320 321 323 324 324 325 327 328 332 335 335 335 337 338 340 342 342 342 341 341 341 342 344 344 346 351 351 350 349 350 350 350 350 349 348 348 348 347 346 344 342 343 348 346 341 340
288 293 293 299 290 284 288 297 300 304 304 305 305 306 309 311 312 308 309 310 313 314 311 310 310 310 311 312 314 315 313 313 313 313 313 313 314 315 315 316 317 318 319 320 323 324 324 325 327 330 336 335 335 336 337 339 339 339 339 338 339 340 341 342 344 345 348 350 350 351 352 352 351 350 349 348 349 350 350 350 347 344 344 345 346 347 345
287 292 293 288 283 288 299 301 303 305 309 311 309 309 310 310 311 311 310 311 312 314 314 313 312 312 312 314 314 314 315 314 313 313 313 312 312 311 311 312 313 315 315 316 319 322 324 325 324 325 327 332 334 334 334 333 336 337 338 337 338 339 340 341 342 342 344 348 350 351 352 352 350 349 349 349 350 350 350 350 348 346 346 345 345 348 349
290 287 286 280 283 296 301 303 302 308 304 306 309 305 309 311 311 311 310 311 312 313 314 315 315 311 311 311 312 313 315 315 314 312 311 311 311 311 311 311 311 312 315 315 317 320 326 322 322 322 323 327 332 333 333 333 334 334 334 334 337 338 338 340 341 342 343 345 346 348 349 349 349 350 350 348 348 349 351 350 350 350 349 349 348 347 348
286 287 284 285 294 294 297 300 299 300 299 300 304 299 301 309 311 311 310 311 312 313 313 313 313 313 311 308 308 311 312 312 313 313 312 312 311 311 312 312 312 313 314 314 315 318 321 322 321 321 322 323 324 328 330 329 329 330 331 332 333 334 338 341 342 342 343 343 343 344 345 346 346 347 348 350 350 352 350 350 350 350 349 350 348 349 349
293 285 281 281 284 282 290 298 303 301 301 304 307 305 299 307 310 313 311 309 310 311 313 313 314 313 308 305 304 308 309 310 310 310 311 310 310 311 312 312 312 312 313 314 316 315 316 319 321 322 322 322 322 323 324 325 324 324 326 329 331 332 333 337 339 340 341 341 342 343 343 342 343 343 346 348 349 352 351 351 349 350 351 350 351 350 349
290 287 280 280 278 283 293 297 299 300 300 303 307 302 295 303 309 312 313 311 311 311 311 311 311 309 304 302 305 307 309 309 309 309 309 310 311 312 312 311 311 311 312 314 314 316 316 317 319 321 322 323 323 322 323 322 322 321 322 325 327 328 331 332 335 337 339 338 338 340 342 341 340 342 342 345 349 350 348 348 349 350 353 351 351 350 351
292 289 284 281 289 289 297 300 299 299 301 303 299 291 290 301 305 309 312 311 311 311 311 312 309 305 300 300 303 308 309 309 309 309 309 310 312 313 314 314 312 313 314 312 312 313 314 314 317 319 320 321 324 323 322 321 321 321 321 322 322 327 329 330 333 337 335 337 336 336 337 341 337 338 342 344 344 345 347 349 349 350 351 351 351 350 352
289 292 286 288 291 299 302 300 301 303 306 296 287 284 295 305 304 306 312 311 311 311 310 308 303 305 306 306 307 309 309 309 309 310 312 312 313 314 315 315 319 312 312 312 312 313 314 315 317 318 319 320 321 322 320 317 319 321 321 321 322 324 326 329 328 327 329 330 332 333 334 336 339 340 339 340 342 343 345 346 347 348 348 350 351 350 351
284 284 284 284 288 295 300 301 305 305 300 287 282 295 305 306 303 307 309 310 310 310 308 306 304 305 308 310 309 309 309 308 309 310 311 312 312 313 316 319 317 311 311 311 312 314 315 316 317 317 318 320 321 320 316 316 318 321 322 322 322 323 326 327 325 324 325 328 333 336 337 337 334 334 334 338 341 342 342 342 341 343 345 345 345 346 348
287 287 284 284 282 295 306 303 300 303 290 290 297 303 304 307 303 303 305 307 307 307 305 306 306 306 307 307 308 308 308 308 308 309 309 309 309 309 310 311 315 313 310 310 311 313 314 315 315 317 317 318 320 319 315 317 320 322 322 322 322 322 324 323 324 325 326 327 329 330 331 333 333 333 333 334 338 342 338 339 338 337 338 340 342 343 344
284 283 282 283 288 295 305 300 293 299 302 305 306 302 301 304 304 303 303 304 305 306 305 305 305 306 306 306 307 308 308 308 308 309 309 309 309 310 311 312 313 315 310 311 311 312 313 315 314 315 315 316 319 317 314 318 319 322 320 321 322 323 324 323 323 324 325 327 325 325 326 328 331 333 333 334 338 341 338 336 333 331 332 336 339 341 342
291 289 290 296 299 303 306 305 304 306 310 311 309 305 303 302 303 305 303 304 305 306 305 305 305 305 306 306 307 307 307 308 308 307 307 308 308 308 309 311 313 311 309 309 310 311 312 313 314 315 314 314 317 315 315 320 319 319 319 321 322 322 321 321 322 322 323 323 323 324 325 326 327 331 332 335 337 338 339 334 332 331 332 336 339 341 341
297 299 299 302 304 305 305 307 307 306 306 307 308 306 303 304 304 305 304 305 305 305 305 304 303 304 305 305 306 306 307 307 307 308 307 307 307 308 309 309 311 310 309 310 310 312 311 313 312 315 314 313 314 314 316 319 318 318 319 320 321 321 319 320 320 321 321 322 324 326 327 327 327 328 329 333 335 336 336 334 333 332 336 342 343 342 342
289 285 298 300 301 304 305 305 307 307 305 304 304 305 305 305 304 304 306 307 307 306 306 304 304 304 305 305 304 305 306 306 306 306 306 306 306 307 308 311 311 309 309 308 311 311 310 311 312 313 313 314 315 315 317 316 317 318 318 320 322 318 315 316 317 319 320 322 323 323 324 325 326 328 328 331 330 332 335 336 336 338 341 342 341 341 340
288 293 298 300 303 303 305 305 303 303 304 304 305 305 306 306 306 306 305 307 306 307 305 304 304 303 304 304 304 305 305 305 305 305 305 305 306 307 308 309 309 307 307 306 308 310 310 310 311 313 313 313 314 314 315 315 316 316 318 320 317 314 314 315 316 318 319 324 322 319 321 322 322 323 324 327 324 323 324 325 328 333 336 337 334 335 335
296 298 300 302 299 302 304 305 306 303 304 305 304 305 304 304 304 305 306 306 307 306 304 304 303 303 304 304 303 302 302 303 304 305 305 305 306 306 306 307 308 305 308 308 308 309 311 310 310 311 311 312 313 312 313 313 314 314 316 318 317 314 314 314 314 320 319 317 317 317 317 318 320 321 323 324 323 325 325 327 329 330 329 328 332 331 333
288 293 296 300 291 293 300 304 305 306 307 305 304 303 303 304 303 303 303 304 307 306 305 304 304 303 303 303 304 303 304 304 304 305 304 304 304 305 306 307 306 309 310 308 309 310 309 309 310 311 310 311 312 313 313 313 313 313 315 315 313 314 315 315 316 318 317 314 314 316 316 316 317 319 325 318 317 322 323 329 321 312 313 324 329 328 329
290 297 300 302 301 299 302 304 306 306 307 306 305 304 303 303 304 303 302 302 302 303 304 306 304 303 303 302 302 303 304 304 304 304 304 303 303 304 305 304 304 305 308 312 310 310 309 311 311 311 311 311 311 312 313 313 312 312 311 313 315 313 316 315 317 319 317 314 315 314 314 315 316 318 319 321 310 310 311 316 311 305 303 301 300 305 321
301 304 304 305 302 301 303 305 306 306 307 307 306 306 308 307 304 304 303 303 302 302 303 305 304 304 303 302 304 303 303 303 303 303 303 303 304 305 305 304 307 308 308 308 308 309 307 310 309 309 311 311 311 313 314 314 313 311 311 312 311 312 312 313 317 318 316 316 317 316 315 314 315 317 317 317 320 312 309 307 307 304 303 300 298 298 301
300 305 307 307 305 305 306 306 306 307 309 309 308 308 309 309 309 308 304 303 303 303 303 304 304 305 304 303 303 303 302 303 304 304 307 308 307 305 306 307 307 307 306 306 306 306 307 308 310 313 311 312 313 314 314 315 314 313 313 313 312 311 312 314 315 317 317 316 317 316 314 314 314 315 315 316 314 315 318 310 308 305 304 301 300 302 303
306 305 306 306 306 306 307 307 308 308 308 309 309 309 314 317 315 311 308 305 303 304 304 303 302 303 305 303 303 303 304 304 310 308 303 304 305 305 306 307 307 307 305 305 307 307 306 310 311 311 311 311 312 313 314 314 314 313 313 312 312 313 314 315 313 311 312 312 313 312 312 311 312 313 314 314 313 313 314 317 320 315 309 305 307 306 308
306 306 303 302 302 302 305 303 302 306 308 310 309 309 310 311 315 311 309 308 306 305 305 304 304 304 304 304 305 304 304 307 306 304 304 305 305 305 305 306 307 308 309 307 306 309 312 311 312 310 309 310 311 312 312 312 312 311 311 312 312 316 319 319 314 312 311 311 311 311 312 313 311 313 312 314 316 315 314 315 316 319 321 322 315 310 315
305 305 302 298 297 300 302 305 306 306 306 307 307 307 309 309 308 308 307 306 305 305 305 305 304 303 303 304 305 305 305 302 302 303 303 304 304 305 305 305 305 307 307 309 308 309 310 310 309 308 307 308 310 310 311 310 309 309 309 309 310 311 312 314 313 312 312 311 311 311 311 311 313 314 315 315 315 315 314 316 318 319 320 319 319 316 311
303 304 305 304 303 304 305 305 305 306 306 307 309 307 307 307 306 307 308 306 306 305 304 303 305 304 303 303 302 302 302 303 303 303 303 304 306 305 305 305 306 308 307 309 306 307 307 307 308 306 307 307 308 309 309 308 307 307 307 308 308 309 311 312 313 313 313 313 312 313 316 315 313 313 313 314 316 315 316 315 317 318 319 318 319 321 319
302 302 303 302 303 304 304 303 303 304 305 305 306 306 306 306 304 304 305 306 307 306 306 304 303 303 304 302 303 303 303 303 303 304 305 305 305 305 306 306 306 306 305 304 303 305 306 306 306 305 306 307 308 307 308 306 306 306 306 306 307 308 309 311 312 312 312 312 313 316 316 315 315 314 315 314 315 316 316 316 317 318 319 318 320 316 314
301 302 302 302 302 301 301 301 301 303 304 305 305 305 304 305 304 304 304 306 306 307 307 306 306 303 302 303 303 303 304 304 303 303 304 304 304 305 305 305 305 304 303 303 303 304 304 304 304 304 305 306 306 306 306 306 305 306 305 306 306 310 312 313 312 311 310 313 314 314 314 316 315 316 317 317 316 316 316 316 316 317 318 317 316 315 315
300 300 300 300 300 299 299 299 300 301 301 302 302 304 304 304 303 303 305 304 304 305 306 306 304 303 303 304 304 304 303 303 304 303 303 303 303 303 303 304 306 308 301 303 305 307 304 302 302 303 304 306 306 306 305 305 305 304 304 308 307 306 309 312 310 310 311 312 313 313 314 315 315 315 315 315 314 315 315 315 316 316 316 316 316 316 316
298 296 295 296 298 297 296 297 298 300 300 302 303 302 303 305 304 305 305 305 305 305 305 305 305 305 304 303 302 302 303 303 302 301 301 301 301 302 302 302 301 301 302 303 303 302 301 301 301 303 305 306 305 305 305 305 304 304 303 304 305 307 310 310 310 309 311 312 312 312 313 314 314 313 313 315 315 316 315 315 316 316 317 317 316 316 317
299 297 298 299 298 298 298 299 299 300 300 302 303 304 302 303 304 305 304 304 304 304 304 305 305 305 304 304 304 304 303 302 301 300 299 299 300 300 301 302 300 300 302 302 301 300 300 301 301 303 306 305 304 304 304 304 304 303 304 304 306 306 307 307 308 308 309 310 311 312 311 311 311 312 313 314 315 315 315 316 316 316 316 316 316 318 312
302 302 302 302 302 302 303 302 301 301 302 302 302 301 301 303 303 303 305 304 304 304 304 304 304 305 305 304 303 303 302 301 300 299 299 299 299 299 300 300 299 300 301 300 300 299 300 300 301 304 304 303 303 302 303 303 303 303 304 305 306 306 305 307 306 306 306 307 308 308 308 308 309 312 314 314 314 315 315 315 315 315 315 316 316 317 315
302 301 303 304 304 304 304 304 304 304 303 302 302 301 301 302 303 303 304 303 304 304 304 304 304 303 302 302 302 301 300 300 299 299 298 298 298 298 298 298 299 299 299 298 299 300 301 302 308 308 306 304 302 300 302 304 303 303 304 303 303 304 304 305 304 305 306 305 306 307 307 309 310 311 312 312 313 314 313 313 313 314 315 315 316 316 316
302 302 301 302 303 303 303 303 304 304 304 303 302 303 303 303 303 303 303 302 302 303 303 303 302 301 301 301 302 301 301 300 300 299 298 298 298 298 298 298 299 299 299 296 298 301 302 303 306 307 303 301 299 298 301 306 303 303 302 300 300 301 301 300 301 301 302 304 305 306 309 309 308 308 311 311 311 312 312 313 313 315 315 315 316 315 314
301 301 301 301 302 303 304 304 305 305 305 304 304 306 305 304 304 303 303 303 303 303 303 302 302 302 302 302 300 299 298 298 297 297 297 297 297 298 298 298 297 297 297 296 298 299 298 304 305 302 299 298 297 297 301 305 305 301 298 299 300 300 300 300 301 302 302 303 306 306 307 307 307 307 308 309 310 311 312 313 314 314 315 315 315 314 312
299 300 300 301 302 304 304 304 305 305 306 304 304 304 307 305 305 303 303 303 303 304 303 302 302 301 300 299 298 298 298 298 298 297 296 297 298 298 297 297 298 299 299 300 300 298 303 303 301 298 297 296 296 296 300 304 305 301 300 300 299 299 301 301 301 303 304 304 304 305 305 306 307 307 307 308 309 311 312 312 313 315 314 315 314 313 311
298 298 299 300 300 302 303 302 303 303 302 305 303 303 305 304 303 302 302 302 303 305 302 301 300 300 299 298 297 297 298 298 297 296 296 296 298 297 297 297 298 300 301 302 299 298 302 302 298 296 296 295 296 298 300 302 303 301 300 300 300 301 302 302 303 303 302 303 303 304 303 304 305 306 307 308 309 310 310 310 310 312 313 314 311 308 309
299 299 299 299 300 301 303 302 302 303 303 304 304 304 304 301 301 300 299 299 299 299 299 299 298 298 297 296 296 296 296 297 296 295 295 295 295 296 295 292 296 296 298 299 300 300 301 300 300 296 296 298 298 301 299 301 299 298 298 299 299 300 300 299 300 300 300 300 301 300 301 302 303 304 305 306 307 308 309 308 308 308 308 308 308 308 307
299 299 299 299 299 300 302 302 303 302 302 303 305 306 304 302 301 300 299 298 298 297 297 298 301 297 296 296 296 296 295 294 295 295 295 297 294 294 293 293 296 296 301 301 301 300 297 297 299 300 298 299 300 301 300 297 296 296 296 296 297 298 298 298 298 299 299 299 299 299 300 300 301 301 303 304 305 306 306 306 306 306 306 306 305 305 304
299 299 299 298 298 299 301 302 302 302 303 304 305 304 303 302 301 301 299 298 297 297 297 298 301 302 300 296 295 294 293 294 294 294 295 295 295 295 293 294 296 298 301 300 299 295 296 296 297 298 301 300 300 299 298 295 295 295 295 295 296 296 296 296 296 297 297 296 297 297 298 298 299 299 299 299 301 302 304 304 304 304 305 303 302 303 304
300 300 299 299 300 301 300 300 301 303 302 303 304 303 302 301 301 301 299 298 298 298 296 296 296 296 297 296 295 294 293 293 293 294 294 294 296 296 296 296 297 299 301 300 298 297 296 298 298 299 300 301 300 298 296 294 294 294 294 294 294 294 294 294 294 294 294 295 295 295 296 298 297 297 297 297 298 300 302 303 303 303 303 303 302 302 302
298 298 298 298 299 300 299 300 300 301 302 304 304 303 301 300 301 301 300 299 299 299 299 297 296 297 296 296 296 295 295 294 295 295 293 293 293 293 297 302 300 299 299 301 298 297 296 297 300 300 299 300 299 298 295 294 294 295 293 293 294 293 293 292 293 293 293 293 294 295 296 296 296 296 295 296 299 300 301 302 302 303 303 302 302 301 300
299 300 299 304 300 300 299 299 301 303 303 302 302 303 302 301 301 301 301 299 299 299 298 298 297 297 296 296 297 296 296 296 295 295 295 295 293 293 297 302 299 301 300 300 297 296 295 300 300 299 298 299 298 297 293 294 294 292 292 292 293 293 293 292 292 292 292 292 293 294 294 294 294 293 294 295 297 298 299 301 302 302 302 301 301 301 300
299 299 299 299 299 300 301 301 302 303 302 301 300 300 301 302 302 302 301 300 299 298 298 297 297 297 297 298 297 296 295 294 295 296 296 296 301 301 303 302 301 301 300 297 297 297 298 299 299 299 298 298 297 294 292 292 293 294 294 294 293 293 293 292 292 291 292 292 293 294 294 294 293 292 294 294 295 296 297 298 298 298 299 301 300 301 300
299 300 298 298 300 301 302 302 301 300 300 299 299 301 302 302 302 302 302 301 300 299 298 298 298 297 297 297 297 297 296 295 293 293 296 297 297 297 297 296 299 301 301 300 300 300 300 299 299 298 298 297 295 293 294 294 294 294 294 294 293 293 292 291 291 291 291 292 292 291 291 291 291 292 293 293 294 295 296 296 296 297 297 297 297 298 299
301 301 302 303 302 302 301 301 301 300 300 302 302 302 303 303 302 301 300 300 299 299 298 298 298 297 298 301 299 296 298 298 293 291 295 296 296 295 296 302 302 301 300 297 296 297 298 298 298 298 297 296 293 293 294 294 294 294 295 294 294 293 293 292 291 290 291 292 292 292 292 291 291 291 292 293 293 294 295 295 295 295 295 296 296 297 297
302 302 301 300 299 300 301 300 298 298 301 302 300 301 302 302 300 299 301 299 299 302 298 298 298 297 297 298 298 298 299 299 299 298 299 297 297 298 299 298 300 301 300 296 296 295 299 298 298 297 296 293 293 295 295 294 293 295 295 295 294 294 294 293 293 293 292 292 291 292 292 291 291 292 292 292 293 293 293 294 294 294 295 295 295 295 296
298 299 300 302 303 303 303 302 301 301 300 300 300 300 302 301 300 303 301 301 300 300 298 298 298 298 297 298 297 298 299 299 300 303 299 298 299 301 302 301 299 300 298 298 296 292 291 291 292 295 295 294 293 294 294 294 293 294 294 294 294 294 293 293 293 292 291 292 292 291 291 291 291 290 291 291 291 291 292 292 292 292 292 293 293 293 293
297 298 299 301 302 303 302 303 304 304 304 305 303 303 303 304 304 303 304 306 301 300 299 298 297 296 297 297 299 298 298 298 301 301 303 301 300 299 302 302 299 299 297 296 292 292 292 295 297 297 297 293 291 293 296 295 293 293 294 295 294 294 294 294 293 292 291 291 292 291 291 291 292 290 290 291 291 291 290 290 291 291 291 291 292 292 292
Wind_Speed
5 5 5 3 5 1 3 5 8 13 9 7 3 2 5 4 7 8 8 6 12 12 12 11 6 5 8 12 10 10 10 10 9 10 12 11 11 8 8 7 7 8 9 7 8 8 7 7 8 8 5 4 3 7 6 6 5 8 10 8 8 8 7 8 8 7 6 6 6 6 4 3 3 3 3 4 4 4 3 4 5 5 6 8 9 9 9
6 9 8 9 9 5 5 7 11 12 9 4 5 3 2 2 8 16 15 10 9 7 9 9 8 6 9 10 11 8 8 9 12 13 13 13 11 10 8 9 8 8 9 9 8 9 6 7 8 7 4 3 1 5 6 2 5 6 8 5 4 3 5 5 5 4 6 5 6 6 6 5 5 5 5 4 4 5 5 5 4 4 4 4 7 9 10
4 6 10 12 14 6 3 8 10 10 9 12 12 11 13 16 13 17 18 15 9 1 1 5 6 5 10 11 11 11 9 8 10 14 14 11 10 9 7 8 7 8 8 9 9 9 8 7 7 6 4 3 3 5 6 6 6 7 6 4 2 4 1 1 2 4 5 5 6 7 7 7 7 7 8 8 7 6 6 6 5 4 4 5 5 7 9
4 6 10 10 12 2 7 9 11 10 4 4 4 7 4 11 10 12 15 13 7 3 4 10 6 7 11 13 13 11 9 9 9 12 12 9 9 8 6 5 6 7 9 9 9 8 9 8 7 6 5 6 6 7 7 8 7 6 7 7 8 7 6 3 1 3 4 3 4 5 5 6 7 8 9 8 8 8 7 7 7 5 5 6 6 6 7
4 9 6 8 7 6 7 7 9 4 6 4 3 4 6 15 18 13 10 5 3 4 5 11 9 11 11 11 11 12 11 10 10 10 11 9 8 8 7 6 5 6 7 6 6 7 6 7 6 6 6 8 8 8 8 8 8 7 6 7 7 6 6 5 5 5 2 3 3 3 4 3 3 3 5 6 7 6 7 5 4 4 5 3 4 5 7
2 5 7 3 5 5 2 4 5 7 2 8 9 7 8 6 5 8 11 13 10 8 7 10 10 11 10 9 8 10 12 11 11 9 8 7 6 7 6 5 4 4 5 5 5 5 5 6 7 6 5 7 7 6 6 7 8 7 7 7 7 6 6 6 5 4 4 3 2 1 1 3 2 3 4 4 4 3 3 2 3 4 5 6 4 3 4
1 4 5 7 3 2 1 6 5 9 11 15 15 10 7 12 15 19 16 14 12 11 9 6 7 9 9 9 10 9 9 11 11 11 8 6 6 6 7 7 6 4 5 6 5 6 6 7 7 7 7 5 5 7 7 8 7 6 6 7 7 6 5 3 4 5 5 4 3 3 3 1 1 2 3 3 3 3 2 2 3 3 4 4 4 3 3
1 3 2 3 1 0 3 5 9 4 4 7 17 12 10 10 14 14 15 13 15 14 15 10 6 10 10 10 8 8 9 10 10 9 8 7 6 6 5 7 6 6 5 5 5 5 4 7 7 7 7 5 6 6 6 7 6 6 6 6 4 2 2 4 5 5 5 6 6 5 4 3 3 2 1 2 3 2 2 2 1 1 2 2 3 3 2
1 1 2 2 2 2 7 3 5 3 2 2 4 9 5 10 8 6 14 15 15 15 12 12 10 8 10 11 8 7 8 7 7 8 7 7 6 6 7 8 9 7 6 7 7 5 6 7 7 7 6 7 6 5 6 6 6 6 5 6 5 4 3 3 5 6 6 7 6 7 6 4 3 4 4 4 4 1 1 1 2 2 3 3 2 2 2
2 1 2 4 1 2 1 2 4 5 5 2 3 14 5 2 3 4 12 17 16 15 12 11 12 12 14 9 7 7 10 11 12 8 6 8 9 9 9 10 11 11 10 10 10 9 8 8 7 6 7 7 7 6 5 5 6 7 6 6 6 6 7 8 7 8 7 7 7 6 4 3 3 4 5 4 3 1 1 1 1 2 2 3 3 3 3
4 4 2 0 1 2 3 4 4 7 6 3 5 10 5 3 4 9 6 6 11 15 17 12 12 13 10 4 3 4 9 10 9 10 8 9 10 10 11 10 11 11 10 10 10 10 10 10 7 6 7 7 7 7 5 5 6 7 7 6 6 5 5 4 2 1 1 2 3 4 5 4 1 1 3 3 3 4 3 3 3 2 2 3 3 3 4
0 1 1 1 2 1 0 2 4 6 8 1 5 7 2 1 3 9 18 16 14 11 10 12 10 10 11 9 7 6 10 10 8 9 9 10 10 10 10 10 9 9 11 13 13 12 11 8 7 8 7 7 7 6 6 6 7 6 6 6 6 5 4 3 3 2 2 2 2 3 4 3 3 1 1 3 3 2 4 4 3 3 3 4 4 3 4
1 2 2 1 2 2 1 2 5 6 2 2 4 5 4 2 2 5 11 14 14 14 12 8 8 3 9 11 10 11 12 13 11 10 10 9 10 10 10 10 10 9 10 10 10 10 8 8 9 9 8 8 7 6 6 8 8 7 6 6 6 6 5 4 4 3 3 3 5 6 4 4 4 3 2 2 2 2 2 2 2 3 3 2 3 3 3
2 3 2 3 3 4 2 4 1 3 2 0 4 2 1 1 4 5 4 9 8 10 8 7 7 8 10 11 10 11 12 12 10 10 10 10 10 8 9 12 10 8 9 9 10 10 9 10 9 9 8 8 6 6 7 8 7 7 8 7 6 6 6 5 6 7 6 6 5 5 5 5 6 6 4 2 3 3 2 2 1 2 2 2 2 2 3
1 1 2 1 0 2 2 4 4 5 3 3 4 3 2 1 4 6 5 6 6 11 10 11 13 13 11 12 12 10 10 10 11 10 11 10 9 9 9 10 9 9 8 9 8 7 7 8 7 7 8 7 6 6 8 7 5 6 7 8 8 7 6 6 6 7 7 8 7 5 5 6 6 7 6 5 4 4 3 3 3 3 2 2 3 3 2
1 0 1 2 3 3 2 2 1 2 2 6 5 4 5 3 4 4 6 6 6 11 14 13 11 11 13 11 11 11 9 9 9 10 10 9 9 8 7 7 7 8 8 7 7 7 7 7 7 7 7 6 6 6 7 6 5 5 6 7 7 8 8 8 7 7 7 8 8 6 7 6 6 6 6 5 5 5 4 3 3 5 4 4 4 3 3
1 0 2 4 4 3 1 5 3 2 2 3 4 5 4 7 5 2 6 7 7 8 11 10 11 10 10 11 11 12 9 9 9 9 9 9 9 8 7 7 6 7 7 7 6 7 7 7 6 6 5 6 6 7 6 5 5 5 6 6 5 6 7 8 9 8 8 8 8 7 7 6 7 7 7 5 5 5 4 3 3 4 4 4 3 3 3
1 1 2 3 0 2 4 2 4 5 4 4 6 8 6 4 5 5 7 4 7 7 7 9 5 7 8 10 9 9 8 8 8 8 8 7 7 8 7 6 6 5 6 6 6 6 6 5 5 5 5 5 6 6 5 5 5 5 6 6 5 5 6 7 8 8 9 9 8 8 8 5 5 4 6 6 5 5 4 4 3 3 4 4 2 1 1
2 1 5 4 1 2 4 4 2 3 4 4 6 8 6 5 6 7 6 7 6 6 8 10 8 8 9 9 6 7 8 9 8 8 8 7 7 8 7 6 6 6 5 4 4 5 5 5 5 5 5 6 5 5 6 7 6 6 6 5 5 5 6 6 6 7 7 7 8 9 9 8 7 5 5 5 6 6 6 5 5 4 4 3 3 2 2
2 1 2 4 2 2 1 4 5 3 4 6 6 7 8 7 5 6 8 9 7 6 7 9 12 9 7 10 8 8 8 8 8 7 8 7 6 6 6 6 6 5 5 3 2 3 4 5 5 5 6 6 6 6 7 7 7 7 6 5 6 6 6 5 5 5 5 12 11 8 8 8 8 9 7 5 6 6 6 6 5 5 5 5 5 5 5
2 1 4 7 6 8 7 10 8 2 3 8 5 7 7 7 8 8 6 6 8 7 8 6 8 9 6 9 9 9 6 6 6 7 7 7 8 7 7 5 5 4 3 2 1 3 4 4 3 4 5 5 6 7 6 6 6 7 6 6 6 7 7 6 5 4 5 5 6 7 7 8 7 5 7 8 7 6 3 2 3 5 6 6 5 5 5
2 1 1 3 3 0 4 6 5 7 7 1 7 5 5 6 8 7 8 7 6 8 8 8 9 9 6 5 6 7 7 7 8 8 9 8 7 6 5 5 4 3 2 3 4 3 3 3 4 4 5 5 6 6 6 6 5 6 7 7 6 6 6 6 6 5 4 5 5 6 6 7 8 10 10 8 6 6 7 11 12 7 1 3 6 5 6
2 5 4 2 3 1 0 2 4 4 4 5 4 1 3 6 9 7 9 7 5 7 6 9 12 10 9 8 8 9 8 8 9 10 9 8 6 5 4 4 3 4 5 4 3 2 2 2 4 4 5 5 5 6 6 6 4 4 4 5 6 7 6 6 7 6 6 6 5 5 5 6 7 7 9 11 14 14 9 9 10 14 14 10 9 5 3
1 1 1 1 2 1 2 3 4 4 3 4 4 4 2 1 2 6 9 9 10 5 5 3 5 9 8 8 10 10 8 9 9 8 8 8 7 6 4 5 6 5 4 3 3 2 3 3 4 4 4 4 4 5 6 7 6 5 4 3 5 6 6 6 6 6 5 5 5 5 5 6 6 7 7 8 9 12 15 13 12 13 13 12 9 7 3
1 2 0 1 2 1 2 3 3 2 3 3 3 1 3 4 1 2 3 6 7 10 8 5 5 7 9 7 9 11 9 7 9 10 9 7 7 7 7 7 5 4 3 1 1 1 1 2 3 3 3 3 4 5 5 5 6 6 7 6 6 6 6 6 7 7 6 5 4 5 5 6 6 6 7 7 8 9 10 12 14 12 12 10 9 9 11
1 1 0 1 1 1 2 2 4 2 2 4 4 3 1 2 4 1 1 3 5 6 9 9 8 7 12 10 8 9 10 9 8 8 8 8 7 7 7 6 5 4 3 1 1 1 2 1 2 3 3 4 4 5 5 6 6 5 6 6 7 6 6 6 6 6 6 5 5 5 5 4 5 6 6 6 7 8 9 8 10 10 6 7 8 11 13
3 1 2 2 2 2 2 1 1 3 3 0 1 2 1 0 1 2 2 3 6 5 10 11 12 10 10 11 11 10 11 8 8 8 8 8 8 7 6 5 5 4 3 1 1 2 1 1 2 2 3 3 3 4 5 5 5 5 5 6 6 10 16 13 7 8 7 7 6 6 6 6 6 6 6 6 6 7 8 8 9 8 8 6 7 9 10
3 3 2 2 2 1 3 2 3 3 3 3 4 4 1 2 3 0 2 2 4 4 3 6 10 11 11 9 11 9 9 10 10 7 8 7 6 6 6 5 5 4 3 2 1 1 1 1 1 1 3 3 3 4 4 4 4 4 4 4 5 6 6 8 7 6 6 7 7 7 7 7 6 6 6 6 6 7 7 8 8 8 8 6 5 6 12
3 2 1 1 3 4 4 3 3 3 5 5 4 4 3 2 2 1 2 4 1 3 6 4 5 9 11 8 10 10 9 9 9 8 7 6 6 6 5 6 5 4 4 4 2 0 0 0 0 1 2 3 3 4 4 4 4 4 4 4 5 5 5 6 5 6 6 6 6 7 7 7 6 6 6 6 6 6 6 7 8 8 8 7 5 6 6
2 2 2 3 3 3 2 4 4 5 5 5 4 5 4 3 2 4 4 4 4 3 1 2 4 5 7 8 8 11 11 10 9 7 7 6 6 6 6 5 6 5 4 3 2 2 2 0 1 3 2 3 3 4 4 4 4 4 4 4 4 5 4 5 5 5 6 6 7 10 7 6 6 6 6 6 6 6 7 7 8 8 8 7 5 6 6
2 2 4 2 4 3 2 3 4 5 6 6 5 5 4 3 4 4 4 4 6 6 2 2 4 4 5 8 7 8 9 9 8 7 7 7 6 6 5 5 6 4 4 2 0 1 3 3 2 2 1 1 3 3 4 5 5 5 5 5 5 7 11 11 7 6 5 6 7 7 7 7 7 7 7 7 7 7 7 7 7 7 6 7 7 7 7
2 4 5 1 1 2 4 3 4 5 4 4 3 5 5 5 5 6 5 4 3 6 6 5 5 7 6 7 8 9 9 9 9 9 9 8 7 6 5 5 5 5 3 3 3 4 3 2 2 1 0 1 3 4 4 5 5 6 6 6 6 5 7 12 7 6 6 6 6 7 7 7 7 7 7 8 8 7 7 8 8 7 7 7 7 7 7
0 3 3 3 4 3 3 4 4 5 5 4 4 4 3 5 5 5 6 6 5 5 9 8 5 5 4 5 7 8 9 9 9 8 8 8 7 5 5 4 4 3 4 5 4 3 3 2 2 3 1 1 3 3 4 4 5 6 6 6 5 5 7 7 8 7 7 7 6 6 6 6 7 7 8 9 8 8 8 8 8 8 8 7 7 7 7
2 3 4 4 4 5 6 7 4 4 4 4 4 3 1 2 4 4 5 6 8 8 8 8 9 8 7 7 7 7 8 9 8 7 7 7 6 5 4 4 3 3 4 5 4 3 3 3 3 3 1 2 2 3 3 4 5 5 6 6 5 5 6 6 7 7 7 7 6 9 8 9 8 8 8 8 8 8 8 8 8 8 8 8 7 7 7
4 5 5 5 5 5 5 6 5 5 5 5 3 1 3 5 7 7 8 8 8 8 8 8 8 8 9 9 8 7 6 6 6 7 7 6 5 4 4 4 4 4 5 4 4 3 2 3 3 2 1 3 3 4 4 5 4 4 5 5 5 5 5 6 7 7 9 9 9 8 8 7 7 8 9 9 8 8 8 8 8 9 9 9 8 7 6
3 3 4 5 5 5 4 5 5 5 5 5 4 4 4 5 8 7 6 6 6 8 9 8 8 7 6 8 8 9 8 6 6 7 6 5 4 4 4 4 5 5 4 3 2 2 2 3 6 9 5 4 5 4 5 6 4 4 4 5 6 6 7 7 7 7 7 8 8 8 7 11 12 10 9 9 8 8 8 8 9 9 9 8 8 8 7
4 5 5 5 5 5 5 4 4 4 5 5 5 5 4 4 5 6 6 5 6 7 7 8 8 8 7 6 7 7 7 6 6 5 5 4 4 5 5 5 5 5 4 2 2 2 3 4 7 10 7 5 5 4 6 13 6 4 4 5 5 5 6 7 7 7 7 7 8 8 9 8 7 8 8 8 8 8 8 8 9 9 9 8 8 8 8
5 5 5 5 5 5 5 4 2 3 3 2 2 3 6 7 8 8 7 7 7 7 7 8 8 7 7 7 8 8 7 6 6 5 5 4 4 6 5 6 4 3 4 1 1 2 3 3 10 7 4 5 4 4 7 13 13 6 3 4 5 5 6 6 7 7 7 6 8 7 7 7 7 7 7 7 8 8 8 8 8 9 9 9 8 8 6
5 4 4 4 4 4 4 2 2 2 4 5 3 5 3 7 9 9 8 7 6 6 7 7 8 8 8 9 7 6 6 5 5 5 4 4 4 6 6 4 3 3 2 0 2 3 3 6 4 4 3 2 3 4 7 12 14 6 4 5 6 6 6 6 7 7 8 8 7 7 7 7 8 8 8 8 8 8 8 9 9 9 9 8 7 7 6
5 5 6 5 4 4 4 4 4 3 3 5 7 8 6 6 7 9 8 7 5 5 6 7 8 7 8 8 7 7 5 5 4 4 4 4 4 7 5 3 3 2 1 4 2 2 6 9 5 3 3 3 4 5 6 11 10 6 6 5 6 7 7 7 6 6 6 6 8 10 8 8 8 9 8 8 8 8 7 8 9 8 8 8 6 3 1
7 7 7 7 7 6 5 5 5 4 4 1 4 6 6 8 9 8 7 7 6 6 7 7 8 7 7 7 7 6 5 4 4 4 4 4 5 4 5 3 0 0 0 1 2 4 5 5 4 5 5 5 3 8 7 9 7 5 6 6 6 6 7 7 7 7 7 7 7 7 7 7 9 9 9 8 8 7 6 6 6 6 5 5 4 3 1
5 5 5 6 5 5 6 5 4 4 4 4 2 5 8 10 11 10 7 8 7 7 7 6 9 8 7 7 6 5 4 4 4 3 4 4 4 5 5 1 0 1 4 4 4 5 4 4 4 5 4 4 5 10 12 8 6 6 5 6 7 7 7 7 7 6 7 7 7 7 8 8 8 8 9 9 8 7 7 7 6 6 5 4 4 4 4
5 4 4 4 4 4 5 5 5 6 5 6 7 8 5 5 8 9 8 8 8 7 7 6 8 9 7 7 5 5 4 4 4 3 4 3 3 4 4 2 1 2 5 3 5 4 5 3 4 3 8 8 6 9 8 4 4 5 5 6 7 7 7 7 7 7 7 7 7 7 7 8 7 7 8 8 8 8 8 7 6 6 5 4 3 2 2
5 4 4 4 4 4 4 4 4 5 6 6 4 8 10 8 9 8 7 7 7 6 6 6 7 7 7 6 6 5 5 3 5 6 7 5 4 2 1 3 2 3 5 4 4 4 4 4 2 7 10 10 9 9 4 3 3 3 4 5 6 6 7 7 7 7 7 7 7 7 8 8 8 7 8 8 8 9 8 7 7 6 5 4 4 4 3
4 4 5 4 4 4 4 5 7 8 9 9 7 5 7 9 10 8 7 7 7 6 6 6 6 6 6 6 6 5 5 6 7 7 7 5 5 1 0 5 4 3 3 6 3 3 2 2 5 9 9 10 9 9 5 4 4 4 4 4 4 6 6 6 7 7 8 8 8 7 7 7 7 8 8 8 9 9 9 8 7 6 5 4 4 3 3
5 6 5 5 4 6 5 4 4 6 8 8 7 9 9 9 9 5 2 4 6 6 6 6 5 6 6 6 4 5 4 5 4 5 7 7 6 4 3 5 2 3 5 7 3 2 1 6 7 7 9 8 8 5 4 4 4 5 3 2 3 4 4 5 6 6 7 7 7 7 7 7 7 7 8 8 8 8 8 10 9 6 4 4 3 2 1
3 3 2 0 1 2 4 5 4 7 10 9 8 7 8 9 8 8 6 5 5 5 5 5 5 5 5 6 7 6 5 4 3 3 4 3 4 5 4 5 4 5 5 4 3 2 0 3 5 7 7 8 7 4 3 3 4 4 4 3 3 3 4 4 4 4 5 6 7 7 8 7 6 7 8 8 8 8 8 7 7 7 7 6 4 3 2
2 1 1 3 3 4 3 5 8 8 9 10 9 7 7 5 5 6 5 5 6 5 5 5 5 4 4 5 5 5 7 7 6 2 3 5 3 3 3 2 2 5 5 5 4 2 5 6 7 7 8 7 4 3 2 2 3 3 3 3 2 3 3 4 3 3 5 6 6 5 5 5 6 7 7 7 7 7 6 7 7 6 6 6 6 5 4
4 3 3 4 4 5 6 6 9 8 8 8 8 7 9 8 6 6 6 5 6 5 5 5 5 4 4 4 4 5 5 5 6 5 5 5 6 5 4 3 6 7 4 3 2 0 3 5 5 5 5 4 1 3 3 2 2 4 3 3 2 3 3 2 3 3 4 5 5 6 6 6 6 6 6 6 7 6 7 6 6 6 6 6 5 6 6
6 7 7 6 6 6 6 8 9 8 5 7 7 7 4 3 4 3 4 6 6 5 5 5 5 5 5 4 4 5 4 4 3 4 6 6 5 4 4 4 3 7 7 4 3 2 3 4 3 2 1 0 2 2 3 1 2 3 3 3 4 3 3 3 5 6 5 6 6 6 6 6 5 8 8 7 7 6 7 6 6 8 12 8 6 5 5
5 6 6 5 5 6 6 7 8 7 6 7 6 6 6 5 6 6 5 7 6 6 5 5 5 5 5 4 4 3 3 4 5 6 5 5 5 6 6 4 4 4 3 4 3 3 3 1 1 1 1 0 1 2 2 2 1 3 4 3 4 4 4 3 3 3 4 5 5 5 5 6 6 6 5 6 7 7 7 7 6 6 6 5 6 5 5
2 4 6 5 5 5 5 5 6 5 4 5 6 6 4 4 5 6 7 10 8 7 7 6 6 5 6 6 5 6 5 5 5 5 5 5 5 6 6 7 5 5 5 5 5 4 4 2 1 2 4 2 1 1 3 3 2 3 3 3 3 3 4 3 3 4 4 4 4 3 5 6 4 5 6 6 7 6 6 6 6 6 6 5 6 6 5
Wind_Direction
340 325 292 318 328 325 358 347 354 5 345 68 64 352 148 115 135 166 153 144 129 146 153 160 171 164 134 120 115 121 127 125 116 103 93 89 84 75 60 52 59 70 71 66 59 63 66 64 70 75 66 49 320 160 160 183 206 190 187 186 180 173 173 175 182 178 166 176 188 193 194 196 230 251 227 201 211 197 171 183 197 217 224 215 211 218 220
340 347 354 348 340 328 9 353 13 4 357 75 115 88 56 116 125 126 126 109 107 135 150 166 160 146 122 122 124 118 107 107 107 100 95 92 86 78 72 70 62 66 74 72 70 67 46 66 73 62 64 66 151 122 122 123 161 184 175 175 175 183 183 181 172 168 170 177 182 186 183 200 216 228 237 232 219 224 211 200 203 206 211 223 222 218 220
330 347 350 348 339 322 4 7 8 14 22 48 65 89 87 83 93 117 119 117 108 321 153 145 149 140 126 118 109 107 105 99 96 96 91 86 87 84 76 78 72 70 69 66 67 66 69 62 62 77 68 40 0 61 79 85 68 43 49 46 143 168 207 210 171 171 183 191 188 189 194 196 199 209 222 221 222 231 234 224 217 215 205 208 220 225 224
331 357 352 339 333 303 65 17 6 352 22 75 104 105 151 113 122 116 113 117 130 185 134 111 111 134 126 120 117 113 105 98 93 91 90 88 84 82 74 64 68 71 69 67 62 61 59 57 57 54 57 60 54 41 60 78 79 52 46 54 53 34 22 21 175 201 181 194 200 205 203 207 202 202 204 209 214 220 227 229 227 217 213 212 208 212 219
328 306 358 338 341 32 32 358 333 352 89 130 104 58 123 130 132 129 131 123 109 131 124 119 126 122 119 117 118 114 107 103 96 93 94 89 82 76 74 67 67 71 77 76 69 58 47 46 47 45 55 60 55 49 45 53 76 85 66 56 60 57 37 33 19 352 304 201 206 222 233 239 253 252 231 217 210 210 221 226 225 225 228 223 225 213 209
230 306 336 352 34 42 36 285 299 23 25 123 107 111 129 135 137 140 133 132 128 113 99 112 121 119 124 125 124 124 123 116 105 96 93 88 80 70 61 59 55 63 78 79 78 71 61 50 50 50 52 67 63 53 51 51 63 66 73 67 58 46 43 24 359 345 356 58 66 86 194 210 233 255 258 257 256 248 239 205 197 211 209 222 231 238 229
301 335 12 47 72 206 274 328 337 46 42 76 82 74 86 88 87 104 108 114 113 105 90 77 93 101 103 107 115 115 115 114 113 113 105 93 82 74 62 52 42 44 67 78 76 68 62 56 48 48 42 43 53 51 45 48 47 57 58 56 53 45 42 33 34 2 2 7 40 39 41 54 199 234 254 273 275 270 273 264 246 220 215 211 224 228 248
6 39 41 90 210 178 31 335 9 349 54 56 80 43 38 93 123 122 112 117 117 111 105 89 73 91 94 87 84 100 108 113 118 115 113 106 92 81 73 65 49 38 34 61 69 67 53 59 58 53 47 35 47 50 45 48 44 48 54 64 71 96 32 34 43 27 8 10 17 22 28 26 18 359 309 255 243 250 228 244 260 241 247 209 203 208 198
103 212 112 201 286 358 6 6 360 337 1 329 122 115 28 2 351 76 119 120 116 117 120 125 122 107 91 85 65 65 89 96 102 111 108 105 93 79 62 60 54 48 47 47 55 62 49 46 50 50 49 50 42 36 42 41 46 39 39 42 34 28 30 46 49 36 15 7 15 13 354 349 20 21 8 356 341 320 226 212 217 214 214 225 212 198 185
87 91 17 1 332 209 294 265 288 314 310 324 64 102 68 354 349 275 142 133 126 118 116 112 107 86 83 76 80 74 84 91 91 81 88 84 77 67 63 54 47 45 40 43 46 50 50 41 32 35 42 43 44 38 31 33 38 35 33 26 16 17 15 6 16 24 10 2 360 357 339 334 10 4 339 333 302 316 334 281 242 220 216 224 224 210 201
28 36 101 212 152 245 213 264 282 305 323 20 105 79 81 290 112 79 10 85 124 133 134 138 121 111 114 144 132 107 93 87 84 84 69 72 72 69 66 61 55 45 41 45 46 45 44 42 27 32 34 37 38 33 32 29 33 32 26 14 8 5 1 360 347 42 33 327 326 316 296 302 328 89 316 304 315 307 272 230 229 251 252 241 235 222 218
77 106 75 296 196 182 294 268 293 291 304 26 63 84 252 237 295 170 162 159 155 151 143 135 131 139 141 156 159 140 107 97 84 78 74 65 60 59 58 57 59 53 43 41 40 38 32 18 16 23 29 34 31 27 22 27 26 20 11 358 351 342 349 359 349 317 323 305 274 260 272 272 287 266 250 310 303 274 275 264 266 253 237 232 239 235 204
268 146 260 358 318 279 256 288 294 313 327 77 94 169 207 294 305 193 178 153 154 152 149 145 138 193 142 142 137 124 110 96 85 78 76 74 70 63 53 49 48 50 47 47 41 38 28 19 19 13 17 28 30 26 26 23 9 1 357 2 359 349 345 351 355 348 333 322 307 298 289 293 294 297 293 259 278 286 287 300 304 293 288 270 255 256 232
206 203 154 218 232 238 218 256 261 328 37 41 169 228 202 248 72 58 129 142 145 140 134 122 116 112 112 118 115 106 102 103 100 92 84 74 62 57 56 50 46 43 46 44 40 33 24 21 20 20 19 22 15 18 22 13 356 351 3 4 1 1 6 1 349 345 344 330 326 312 304 309 310 305 300 299 291 298 305 298 304 308 317 314 301 279 271
62 79 86 24 252 279 332 295 348 25 100 214 207 135 27 120 65 86 83 110 124 121 116 117 120 120 115 113 109 107 104 100 98 95 91 85 74 61 49 45 41 45 38 37 38 32 24 19 17 18 24 23 12 14 11 356 348 4 4 359 354 353 356 358 351 346 341 336 335 338 334 327 313 299 300 311 301 288 290 309 312 313 312 320 314 301 295
190 340 128 188 217 240 302 100 172 278 173 159 158 125 92 28 62 54 81 65 101 119 122 126 119 116 116 112 113 107 105 105 102 97 97 95 91 78 68 64 54 48 42 34 28 23 19 16 14 15 22 19 13 12 352 329 355 3 9 1 354 355 354 351 348 346 341 333 328 333 334 333 327 312 303 297 295 285 277 290 318 316 319 324 312 309 313
120 219 203 243 239 231 299 102 138 132 104 122 147 107 118 106 69 72 76 99 97 109 118 121 126 122 124 128 129 123 127 124 117 111 108 110 108 102 89 77 61 52 44 29 24 17 11 10 9 7 9 12 2 0 334 331 352 358 2 2 360 357 351 345 344 339 334 329 327 326 323 333 329 327 316 307 296 290 288 296 320 323 310 308 305 322 336
308 231 165 197 162 140 97 65 112 116 91 77 94 103 89 52 109 107 107 104 118 118 118 113 105 116 127 120 121 124 126 117 114 115 114 107 107 105 101 90 83 75 51 29 19 12 0 0 359 355 352 1 355 329 330 344 347 351 358 354 355 358 353 346 341 341 337 332 331 334 334 334 332 331 333 336 329 317 322 312 304 298 295 305 314 47 36
56 279 351 27 304 316 113 109 65 65 95 105 108 93 96 123 108 98 97 114 117 134 131 122 123 126 129 123 121 119 119 125 129 126 123 122 118 116 111 111 96 79 75 47 20 1 350 338 342 341 341 338 335 335 345 340 347 347 349 347 347 352 349 343 340 342 344 340 348 347 347 344 342 353 354 4 4 359 353 339 326 311 297 290 303 303 293
121 173 321 307 278 259 276 130 136 123 95 107 109 122 135 127 113 106 120 102 92 104 110 130 130 136 134 125 129 129 136 140 140 134 128 123 106 100 106 100 96 91 91 79 12 347 336 332 348 356 3 358 349 348 347 345 345 342 343 337 342 335 329 331 334 337 344 349 353 343 344 346 345 342 340 349 351 342 336 330 328 328 328 320 313 302 307
293 329 339 357 48 43 17 10 8 350 138 126 129 129 123 109 103 102 90 113 133 121 130 121 113 115 125 132 138 139 145 135 129 125 116 107 109 109 99 99 101 110 114 93 14 360 352 342 355 4 3 350 345 342 338 340 345 343 332 334 335 326 321 321 321 331 344 342 344 343 337 338 335 332 327 335 335 327 303 254 302 326 319 304 293 297 294
8 157 258 328 89 297 328 356 5 25 356 116 141 127 111 123 125 119 106 108 125 135 141 131 127 127 141 146 131 126 131 128 121 114 112 113 112 111 118 115 123 118 84 75 57 54 10 347 359 357 349 339 332 330 330 329 340 338 333 326 324 321 319 318 315 320 334 337 336 337 339 336 335 330 332 335 327 325 315 325 336 349 156 264 297 315 310
229 234 239 191 133 163 238 338 340 14 28 47 35 18 179 171 155 149 134 130 125 131 147 147 141 147 147 152 126 119 124 131 132 130 125 120 118 125 128 116 102 76 80 88 89 65 359 338 354 342 325 315 316 318 316 309 317 323 331 332 328 320 324 323 319 322 327 327 327 329 330 333 332 330 324 330 328 325 314 311 327 330 334 326 307 290 244
234 203 210 53 91 113 297 328 349 17 8 50 43 352 10 316 255 182 157 162 152 169 157 125 142 147 147 145 130 131 132 133 128 126 128 130 137 139 122 101 96 91 88 71 54 12 330 346 336 319 313 313 324 332 338 335 328 325 325 328 326 318 319 315 317 319 317 319 325 328 329 331 332 330 328 325 326 324 320 316 313 313 313 316 316 333 292
208 229 210 119 127 176 245 261 275 303 3 47 61 71 19 20 65 312 244 180 170 160 153 143 141 136 131 142 135 136 136 139 136 138 138 134 126 108 104 102 103 108 113 112 27 312 308 311 326 337 334 329 351 351 345 351 0 357 347 336 323 315 310 309 310 309 308 310 315 324 325 330 332 331 331 331 328 325 323 311 302 298 295 295 291 303 318
167 195 168 70 54 349 309 321 313 326 12 1 25 355 73 42 332 45 236 222 222 173 150 146 143 145 135 138 132 132 129 139 137 124 112 109 109 108 113 125 137 142 128 120 45 322 292 316 354 350 348 347 353 353 352 353 354 359 348 347 335 323 311 311 316 312 313 306 308 307 307 308 309 317 317 317 312 313 315 318 320 317 308 281 310 331 320
27 51 78 12 349 334 61 118 237 277 297 227 153 258 288 192 318 318 307 194 203 211 171 163 151 148 136 137 138 141 135 135 118 117 122 124 126 134 141 141 133 127 118 116 21 314 11 26 0 360 1 350 351 3 1 353 347 352 355 349 346 340 342 342 336 327 320 315 310 306 305 305 306 308 306 305 307 308 307 311 310 301 278 294 299 290 281
44 13 85 161 221 249 284 256 241 263 262 273 299 287 233 158 162 25 23 13 172 184 174 154 141 140 137 146 135 135 128 125 127 131 127 133 141 139 133 132 129 125 118 101 58 44 48 327 7 358 2 347 360 6 352 343 336 337 340 342 338 333 326 331 332 335 336 334 326 319 310 303 298 298 300 301 300 296 296 297 300 299 296 280 282 285 300
7 319 290 234 220 230 258 292 306 278 279 287 272 266 275 264 255 184 151 87 60 156 158 170 158 147 141 145 132 131 128 127 128 133 137 140 134 131 128 121 114 106 100 95 103 300 334 10 73 34 14 340 2 357 341 334 326 324 324 327 324 319 320 322 327 329 327 324 319 313 309 306 304 300 298 295 292 288 289 290 291 293 291 293 306 317 321
318 322 344 329 316 328 311 286 261 267 270 262 260 262 261 263 227 188 193 147 98 93 58 159 153 147 137 136 136 135 135 137 137 139 131 121 112 105 103 102 90 80 77 76 37 347 349 329 72 75 26 347 360 344 333 326 316 317 314 318 310 307 297 315 322 322 320 318 318 320 315 309 303 300 298 295 291 294 293 289 287 289 291 288 290 293 297
306 322 331 357 30 19 13 295 282 274 271 268 243 236 253 219 212 173 182 173 140 126 74 99 139 131 127 132 136 128 124 124 123 119 107 100 95 93 92 95 103 103 108 107 158 76 60 68 84 76 4 4 350 329 328 324 319 314 314 310 311 312 319 320 322 322 311 312 313 315 313 311 308 309 309 310 310 306 297 292 290 291 288 288 287 287 279
6 337 330 332 336 326 308 298 297 293 290 284 251 235 219 200 203 188 180 159 159 125 95 70 104 126 132 132 128 123 116 112 104 99 96 91 86 82 84 87 92 101 99 77 73 75 89 85 37 321 259 3 330 323 326 324 320 315 308 311 316 318 313 321 323 318 316 313 308 308 304 305 309 314 316 313 309 303 302 301 298 294 289 289 288 279 277
53 347 342 322 320 308 281 275 265 282 279 266 238 231 231 215 204 182 167 142 124 110 106 100 74 76 94 105 105 106 107 105 102 99 98 96 93 93 95 94 96 99 87 87 95 92 80 51 328 296 265 349 340 332 327 328 321 312 303 306 305 312 321 319 317 316 311 311 308 302 307 313 315 314 308 308 305 306 304 301 296 291 286 280 273 270 274
217 218 230 230 222 254 279 282 268 271 272 262 258 217 146 149 154 138 132 133 132 131 128 126 120 111 101 95 93 100 107 106 103 108 109 109 107 103 95 95 95 80 89 89 75 56 33 349 312 306 266 23 341 348 342 338 328 322 310 299 311 315 322 323 318 315 310 309 313 317 316 313 312 307 304 301 302 301 300 302 301 296 290 281 274 270 271
213 237 221 234 235 239 237 241 253 255 255 249 247 191 146 132 133 142 149 142 145 144 136 124 122 121 119 113 104 93 81 98 118 118 120 118 124 127 125 111 96 91 94 77 66 48 348 314 290 295 54 6 23 19 359 337 325 329 320 323 339 328 324 317 318 312 312 314 315 313 309 309 303 305 307 311 307 303 300 301 300 298 293 285 280 275 262
256 260 261 253 252 248 252 254 247 238 228 211 197 182 169 162 150 153 146 141 136 130 129 127 121 114 111 114 115 116 124 126 123 118 121 126 135 131 116 107 90 78 90 77 42 27 346 319 336 354 25 32 45 9 346 339 336 321 330 345 339 329 323 319 315 310 304 304 302 300 300 301 303 305 306 304 304 304 303 300 299 296 292 288 286 282 279
268 267 263 250 247 241 243 248 255 234 206 200 179 177 171 161 142 132 130 125 120 120 120 120 116 118 121 117 113 114 116 122 119 118 125 127 116 100 94 88 81 89 87 62 342 314 337 303 342 32 56 32 18 1 342 341 330 326 360 346 333 328 318 310 302 296 292 286 283 281 285 293 292 292 293 291 294 295 295 295 297 295 291 287 284 281 276
263 256 257 259 247 238 238 242 241 180 144 147 189 172 159 140 132 131 131 129 130 129 126 123 123 121 114 107 103 104 108 106 108 107 100 96 100 97 91 96 84 88 95 71 287 329 295 0 52 60 43 25 354 336 331 336 333 341 357 331 317 305 302 296 292 284 282 280 290 298 299 297 292 290 292 299 298 296 293 293 293 291 290 287 282 276 262
289 285 285 272 257 231 223 193 159 170 168 153 89 23 351 134 130 126 125 123 126 126 120 119 118 115 115 113 110 106 106 108 106 101 99 104 104 101 108 102 105 96 103 74 11 329 338 61 71 55 36 353 337 311 320 332 333 335 325 314 309 297 305 300 300 299 301 303 305 302 305 310 313 312 305 298 293 288 287 287 288 291 291 284 282 274 256
269 265 259 259 257 245 232 203 199 190 166 149 145 158 181 158 138 131 127 125 125 119 115 117 116 117 118 115 116 116 120 120 122 119 122 112 100 108 101 90 85 82 53 49 26 0 61 59 66 37 4 349 338 324 336 335 343 354 339 325 314 315 310 314 315 314 321 329 323 320 323 319 312 306 302 299 296 295 292 286 284 283 280 274 267 273 260
265 266 265 255 248 234 215 192 197 190 162 201 187 170 152 146 134 128 134 132 128 119 120 119 118 121 125 129 131 142 146 135 129 134 124 94 90 108 124 128 216 273 105 65 57 71 56 48 44 25 358 346 330 350 347 351 7 347 345 339 332 327 330 326 315 322 330 333 334 328 318 315 315 314 309 302 298 303 307 308 309 315 322 321 318 329 347
271 272 269 261 250 234 218 208 163 152 133 138 145 140 161 156 143 144 146 135 130 127 125 126 129 132 137 136 135 126 120 125 129 139 136 135 138 126 114 145 281 291 48 56 62 74 54 39 30 5 333 350 6 2 4 6 349 351 347 350 343 341 337 326 322 328 334 334 325 318 319 317 315 316 320 319 318 314 312 309 309 311 315 325 334 339 341
271 271 272 261 245 235 214 182 169 175 167 160 160 151 170 158 133 131 136 133 133 133 132 134 132 129 129 130 128 131 149 161 158 130 72 68 129 139 137 150 131 78 69 78 80 73 53 35 9 328 354 5 9 12 18 358 344 356 357 355 346 344 336 330 329 328 330 324 321 319 318 315 319 323 323 323 319 315 312 310 305 305 305 310 315 322 334
262 264 258 247 223 196 192 167 148 133 133 134 173 168 150 141 131 136 146 144 136 133 129 127 128 136 138 137 137 149 163 151 131 120 115 102 66 37 119 130 114 95 86 97 97 91 65 36 341 356 358 1 10 13 8 331 328 337 357 1 354 349 342 339 332 328 327 324 320 317 315 320 326 322 325 319 312 309 307 307 307 305 305 307 307 303 299
276 272 270 259 230 198 178 164 165 162 162 157 159 167 155 149 144 150 154 144 139 138 136 140 144 145 144 146 151 161 162 156 142 135 125 134 139 206 227 124 121 116 106 108 112 100 108 97 14 14 0 5 11 23 1 339 331 346 7 353 347 355 351 342 335 334 328 320 315 314 319 327 322 325 323 314 313 313 312 303 294 289 286 288 291 289 288
283 275 262 257 214 198 187 179 173 137 138 133 125 118 107 100 111 125 182 155 146 150 154 153 147 148 151 150 147 145 145 140 140 146 153 159 167 202 184 147 162 122 117 122 118 99 347 23 30 24 5 4 16 22 1 345 336 333 324 329 332 349 345 341 340 333 327 325 316 318 325 325 326 327 320 313 316 324 321 325 323 317 303 293 282 271 278
286 309 300 95 142 101 107 143 148 129 127 119 117 126 138 146 150 147 178 170 151 144 142 141 147 155 153 145 144 143 132 110 89 116 131 143 144 149 155 141 124 119 125 125 122 152 21 28 21 17 11 3 15 12 347 332 326 319 312 309 327 320 326 323 320 306 311 310 323 329 325 326 330 323 322 324 327 334 329 332 335 336 337 335 331 322 307
325 300 154 128 119 116 120 127 133 136 135 135 135 131 128 158 163 159 158 143 142 136 138 138 133 131 127 130 144 148 147 140 126 162 163 145 143 127 119 144 134 100 104 111 117 93 54 45 31 29 21 16 9 318 289 302 306 294 286 291 301 261 267 270 278 287 309 317 331 308 308 326 328 323 324 328 329 330 326 343 340 338 335 335 333 331 326
24 53 74 80 111 131 121 116 112 101 97 118 131 137 154 173 180 150 133 131 133 142 148 143 136 139 136 136 134 141 156 152 140 175 190 154 149 156 184 148 106 109 118 129 136 103 28 38 47 25 26 15 298 272 268 266 300 321 333 315 313 314 298 277 272 284 303 327 329 335 337 342 334 317 323 331 325 332 334 340 341 345 344 338 341 344 341
54 60 60 65 74 84 99 109 111 122 132 116 124 140 146 125 143 161 142 144 153 145 143 142 144 154 154 152 147 158 154 148 132 131 142 151 148 146 130 129 142 132 133 135 125 88 46 20 27 53 67 88 298 305 302 305 288 316 326 334 327 312 316 341 349 349 333 340 347 343 345 348 339 343 344 332 328 338 338 341 346 346 355 355 347 347 344
74 72 62 63 64 78 86 107 128 145 146 148 161 169 181 179 184 178 165 157 145 149 165 173 167 169 169 172 171 176 170 160 158 156 152 152 149 150 154 150 142 146 146 138 142 156 156 175 203 164 151 157 298 316 314 351 347 323 326 329 333 333 342 356 358 1 342 338 349 347 340 339 340 344 340 340 338 339 338 341 347 345 345 353 347 346 351
68 92 86 71 70 86 85 96 101 111 122 149 179 197 184 177 178 165 159 166 161 166 169 164 181 198 174 176 177 187 183 173 168 163 161 161 156 154 158 154 159 162 150 157 173 178 173 194 206 155 161 184 218 250 324 348 337 318 322 332 344 342 354 10 15 9 349 340 328 344 348 336 346 1 342 347 347 346 343 341 342 346 343 350 349 354 351